MST,Max TemperatureF,Mean TemperatureF,Min TemperatureF,Max Dew PointF,MeanDew PointF,Min DewpointF,Max Humidity, Mean Humidity, Min Humidity, Max Sea Level PressureIn, Mean Sea Level PressureIn, Min Sea Level PressureIn, Max VisibilityMiles, Mean VisibilityMiles, Min VisibilityMiles, Max Wind SpeedMPH, Mean Wind SpeedMPH, Max Gust SpeedMPH,PrecipitationIn, CloudCover, Events, WindDirDegrees
2012-12-1,54,46,39,39,37,34,86,68,45,30.07,30.02,29.98,10,10,10,20,12,26,0.00,0,,198
2012-12-2,54,46,37,39,37,34,86,67,50,29.99,29.90,29.82,10,10,10,28,18,37,0.12,5,,203
2012-12-3,50,41,32,40,35,29,92,80,45,30.29,30.15,29.96,10,10,5,22,9,33,0.12,2,Rain,339
2012-12-4,59,46,33,37,32,27,93,68,30,30.35,30.27,30.17,10,10,8,22,9,28,0.00,2,,203
2012-12-5,60,50,39,36,32,27,73,51,19,30.17,30.05,29.96,10,10,10,20,12,24,0.00,4,,194
2012-12-6,57,46,34,39,35,30,92,69,36,30.02,29.95,29.87,10,10,10,13,5,,0.00,3,,360
2012-12-7,48,37,26,33,26,22,92,65,25,30.11,30.03,29.94,10,10,10,14,7,20,0.00,3,,333
2012-12-8,55,39,23,24,19,11,81,52,11,30.06,29.96,29.85,10,10,10,18,13,24,0.00,0,,218
2012-12-9,33,25,16,24,19,11,88,73,42,30.44,30.25,30.04,10,7,1,22,11,28,0.02,6,Snow,357
2012-12-10,46,28,10,20,14,6,84,63,23,30.42,30.30,30.18,10,10,10,16,4,,0.00,0,,202
2012-12-11,46,30,15,20,16,11,88,56,21,30.22,30.07,29.84,10,10,10,24,10,24,0.00,0,,198
2012-12-12,46,38,30,17,15,13,56,36,13,29.85,29.80,29.75,10,10,10,24,15,31,0.00,0,,203
2012-12-13,45,41,37,34,19,12,83,40,13,29.79,29.75,29.69,10,10,10,28,13,36,0.01,3,Rain,206
2012-12-14,39,36,33,36,33,27,93,88,66,29.84,29.65,29.55,10,9,5,26,7,37,0.04,8,Rain-Snow,193
2012-12-15,39,34,28,31,28,25,100,85,64,29.91,29.83,29.80,10,8,2,18,11,,0.02,7,Snow,201
2012-12-16,37,32,28,26,24,22,82,72,50,30.04,29.99,29.88,10,10,10,24,16,36,0.00,3,,193
2012-12-17,43,38,33,32,29,24,82,72,59,30.02,29.94,29.86,10,10,10,38,26,46,0.00,6,,190
2012-12-18,37,29,21,34,26,19,93,87,75,29.87,29.72,29.63,10,4,0,22,14,29,0.20,8,Fog-Snow,356
2012-12-19,21,8,-5,18,3,-11,88,71,46,30.63,30.29,29.75,10,10,6,15,10,,0.00,1,Snow,343
2012-12-20,15,2,-11,8,-3,-17,83,76,62,30.68,30.58,30.47,10,10,9,13,7,,0.00,0,,188
2012-12-21,30,15,0,17,8,-4,88,70,46,30.45,30.31,30.21,10,10,10,20,13,,0.00,0,,188
2012-12-22,37,24,10,20,14,4,77,60,29,30.21,30.11,30.02,10,10,10,22,13,,0.00,0,,200
2012-12-23,37,28,18,28,22,14,76,62,39,30.17,30.03,29.92,10,10,10,22,14,,0.00,2,,193
2012-12-24,36,24,12,31,25,9,93,83,59,30.19,29.90,29.79,10,7,0,28,15,37,0.08,7,Fog-Snow,248
2012-12-25,28,14,1,16,9,-1,87,74,47,30.38,30.23,29.99,10,10,10,20,6,,0.00,2,,216
2012-12-26,30,24,18,25,20,14,93,72,40,29.93,29.79,29.70,10,8,1,26,18,36,0.00,7,Snow,198
2012-12-27,26,22,17,23,20,16,93,84,73,30.14,29.91,29.80,10,5,1,15,9,,0.04,7,Snow,12
2012-12-28,28,18,7,20,13,3,93,79,51,30.34,30.24,30.10,10,9,1,10,2,,0.00,4,Snow,348
2012-12-29,26,17,8,16,10,3,88,78,57,30.32,30.22,30.11,10,10,9,8,5,,0.00,5,,218
2012-12-30,25,16,8,18,13,2,93,82,65,30.12,30.04,29.90,10,7,2,20,10,,0.01,8,Snow,359
2012-12-31,19,7,-5,16,8,-9,93,82,64,30.45,30.19,30.00,10,4,0,14,9,,0.02,6,Fog-Snow,2